Dansville, NY

2:34 PM EDT on March 23, 2017 (GMT -0400)
Dansville Municipal

Weather History for KDSV - October, 2012

Change the Weather History Date:

Tuesday, October 2, 2012

  Actual Average Record
Temperature  
Mean Temperature 62 °F -  
Max Temperature 71 °F 67 °F 88 °F (1952)
Min Temperature 53 °F 43 °F 32 °F (1958)
Degree Days  
Heating Degree Days 3    
Growing Degree Days 12 (Base 50)    
Moisture  
Dew Point 59 °F    
Average Humidity 95    
Maximum Humidity 100    
Minimum Humidity 78    
Precipitation  
Precipitation 0.19 in - - ()
Sea Level Pressure  
Sea Level Pressure 29.94 in    
Wind  
Wind Speed 3 mph (South)    
Max Wind Speed 10 mph    
Max Gust Speed -    
Visibility 8 miles    
Events Rain    
Averages and records for this station are not official NWS values.
T = Trace of Precipitation, MM = Missing Value Source: NWS Daily Summary

Daily Weather History Graph

Daily Weather History Graph

Search for Another Location

Airport or City:

Trip Planner

Search our weather history database for the weather conditions in past years. The results will help you decide how hot, cold, wet, or windy it might be!

Date:

Astronomy

Oct. 02, 2012 Rise Set
Actual Time 7:09 AM EDT 6:49 PM EDT
Civil Twilight 6:41 AM EDT 7:17 PM EDT
Nautical Twilight 6:08 AM EDT 7:50 PM EDT
Astronomical Twilight 5:35 AM EDT 8:23 PM EDT
Moon 7:56 PM EDT (10/2) 9:39 AM EDT (10/2)
Length of Visible Light 12h 36m
Length of Day
11h 40m
Waning Gibbous, 94% of the Moon is Illuminated
Oct 2
Waning Gibbous
Oct 8
Last Quarter
Oct 15
New
Oct 21
First Quarter
Oct 29
Full

Hourly Weather History & Observations

Time (EDT) Temp. Dew Point Humidity Pressure Visibility Wind Dir Wind Speed Gust Speed Precip Events Conditions
12:54 AM 53.1 °F 53.1 °F 100% 29.95 in 10.0 mi SSW 3.5 mph - N/A   Clear
1:54 AM 53.1 °F 53.1 °F 100% 29.95 in 10.0 mi South 8.1 mph - N/A   Overcast
3:54 AM 54.0 °F 53.1 °F 97% 29.92 in 10.0 mi Calm Calm - N/A   Overcast
4:54 AM 54.0 °F 54.0 °F 100% 29.91 in 10.0 mi South 3.5 mph - 0.00 in Rain Light Rain
5:54 AM 55.0 °F 55.0 °F 100% 29.93 in 10.0 mi Calm Calm - 0.01 in   Overcast
6:38 AM 55.4 °F 55.4 °F 100% 29.89 in 10.0 mi Calm Calm - N/A   Overcast
6:54 AM 55.0 °F 55.0 °F 100% 29.93 in 10.0 mi Calm Calm - N/A   Overcast
7:49 AM 53.6 °F 53.6 °F 100% 29.90 in 10.0 mi Calm Calm - N/A   Overcast
7:54 AM 54.0 °F 54.0 °F 100% 29.94 in 10.0 mi Calm Calm - N/A   Overcast
8:54 AM 55.0 °F 55.0 °F 100% 29.96 in 7.0 mi Calm Calm - 0.01 in Rain Light Rain
9:41 AM 55.4 °F 55.4 °F 100% 29.93 in 10.0 mi Calm Calm - 0.00 in   Overcast
9:54 AM 57.0 °F 57.0 °F 100% 29.96 in 10.0 mi Calm Calm - 0.00 in   Overcast
10:03 AM 57.2 °F 57.2 °F 100% 29.93 in 10.0 mi Calm Calm - N/A   Overcast
10:29 AM 60.8 °F 60.8 °F 100% 29.93 in 10.0 mi Calm Calm - N/A   Overcast
10:54 AM 62.1 °F 60.1 °F 93% 29.95 in 10.0 mi Calm Calm - N/A   Overcast
11:54 AM 66.0 °F 62.1 °F 87% 29.93 in 10.0 mi Calm Calm - N/A   Overcast
12:24 PM 66.2 °F 62.6 °F 88% 29.91 in 10.0 mi SE 8.1 mph - N/A   Overcast
12:54 PM 68.0 °F 63.0 °F 84% 29.93 in 10.0 mi SE 6.9 mph - N/A   Overcast
1:39 PM 68.0 °F 64.4 °F 88% 29.90 in 10.0 mi SE 3.5 mph - 0.00 in   Overcast
1:54 PM 70.0 °F 64.0 °F 81% 29.92 in 10.0 mi SSE 6.9 mph - 0.00 in   Mostly Cloudy
2:36 PM 71.6 °F 64.4 °F 78% 29.89 in 10.0 mi Variable 6.9 mph - N/A   Overcast
2:54 PM 66.9 °F 64.0 °F 90% 29.92 in 10.0 mi NW 8.1 mph - N/A   Overcast
3:54 PM 66.9 °F 64.9 °F 93% 29.92 in 10.0 mi NW 10.4 mph - N/A   Overcast
4:54 PM 66.0 °F 64.9 °F 96% 29.93 in 10.0 mi North 6.9 mph - N/A   Overcast
5:54 PM 66.0 °F 66.0 °F 100% 29.93 in 10.0 mi Calm Calm - N/A   Scattered Clouds
6:54 PM 64.0 °F 64.0 °F 100% 29.95 in 10.0 mi NW 4.6 mph - N/A   Overcast
8:03 PM 62.6 °F - N/A% 29.94 in 7.0 mi Calm Calm - N/A   Overcast
8:54 PM 63.0 °F - N/A% 29.99 in 4.0 mi Calm Calm - N/A   Haze
9:06 PM 62.6 °F - N/A% 29.96 in 4.0 mi Calm Calm - N/A   Haze
9:43 PM 62.6 °F - N/A% 29.96 in 4.0 mi SSE 3.5 mph - 0.01 in Rain Light Rain
9:54 PM 63.0 °F - N/A% 29.99 in 3.0 mi Calm Calm - 0.02 in Rain Light Rain
10:54 PM 63.0 °F - N/A% 29.99 in 2.0 mi SSE 6.9 mph - 0.10 in Rain Heavy Rain
10:56 PM 62.6 °F - N/A% 29.97 in 1.8 mi Variable 3.5 mph - 0.02 in Rain Heavy Rain
11:05 PM 62.6 °F - N/A% 29.97 in 3.0 mi SSE 3.5 mph - 0.04 in Rain Light Rain
11:10 PM 62.6 °F - N/A% 29.97 in 4.0 mi SSE 5.8 mph - 0.04 in Rain Light Rain
11:32 PM 62.6 °F - N/A% 29.97 in 10.0 mi SSW 3.5 mph - 0.05 in   Overcast
11:41 PM 62.6 °F - N/A% 29.96 in 8.0 mi Calm Calm - 0.05 in   Overcast
11:54 PM 63.0 °F - N/A% 29.98 in 9.0 mi Calm Calm - 0.05 in   Overcast